When you browse on this site, cookies collect data to enhance your experience and personalize the content and advertising you see.
Visit our Privacy Policy to learn more. By continuing to use the site, you agree to this use of cookies and data.
  • Em Portugal
  • Lista de países
  • Para 7 dias
  • Temperatura da água
  • Mapas de satélite
  • Mapa do tempo
  • Widgets de tempo
  • user-avatar
    Iniciar Sessão

    Previsão horária em Wierzbinek

    Hoje, 17 Junho, Segunda-feira

    Tempo Temperatura Precipitação Vento Pressão Humidade
    00:00 +13°C° 0 mm 3 m/s 757 mmHg 84%
    01:00 +13°C° 0 mm 3 m/s 757 mmHg 81%
    02:00 +12°C° 0 mm 3 m/s 757 mmHg 83%
    03:00 +12°C° 0 mm 3 m/s 757 mmHg 85%
    04:00 +12°C° 0 mm 3 m/s 757 mmHg 87%
    05:00 +13°C° 0 mm 3 m/s 757 mmHg 84%
    06:00 +16°C° 0 mm 3 m/s 757 mmHg 81%
    07:00 +17°C° 0 mm 4 m/s 758 mmHg 79%
    08:00 +19°C° 0 mm 4 m/s 758 mmHg 74%
    09:00 +20°C° 0 mm 4 m/s 758 mmHg 68%
    10:00 +21°C° 0 mm 3 m/s 758 mmHg 63%
    11:00 +22°C° 0 mm 3 m/s 758 mmHg 60%
    12:00 +24°C° 0 mm 3 m/s 758 mmHg 57%
    13:00 +24°C° 0 mm 3 m/s 758 mmHg 54%
    14:00 +24°C° 0 mm 3 m/s 757 mmHg 55%
    15:00 +24°C° 0 mm 3 m/s 757 mmHg 56%
    16:00 +25°C° 0 mm 3 m/s 757 mmHg 57%
    17:00 +22°C° 0 mm 3 m/s 757 mmHg 63%
    18:00 +21°C° 0 mm 3 m/s 757 mmHg 69%
    19:00 +20°C° 0 mm 2 m/s 757 mmHg 75%
    20:00 +19°C° 0 mm 2 m/s 757 mmHg 76%
    21:00 +17°C° 0 mm 2 m/s 757 mmHg 77%
    22:00 +16°C° 0 mm 2 m/s 758 mmHg 78%
    23:00 +16°C° 0 mm 2 m/s 758 mmHg 79%

    Amanhã, 18 Junho, Terça-feira

    Tempo Temperatura Precipitação Vento Pressão Humidade
    00:00 +15°C° 0 mm 2 m/s 758 mmHg 80%
    01:00 +15°C° 0 mm 2 m/s 758 mmHg 81%
    02:00 +14°C° 0 mm 2 m/s 758 mmHg 82%
    03:00 +14°C° 0 mm 2 m/s 757 mmHg 83%
    04:00 +13°C° 0 mm 2 m/s 757 mmHg 84%
    05:00 +15°C° 0 mm 2 m/s 757 mmHg 81%
    06:00 +16°C° 0 mm 3 m/s 757 mmHg 78%
    07:00 +18°C° 0 mm 3 m/s 758 mmHg 75%
    08:00 +19°C° 0 mm 3 m/s 757 mmHg 69%
    09:00 +21°C° 0 mm 3 m/s 757 mmHg 64%
    10:00 +22°C° 0 mm 4 m/s 757 mmHg 59%
    11:00 +23°C° 0 mm 4 m/s 757 mmHg 57%
    12:00 +23°C° 0 mm 4 m/s 756 mmHg 56%
    13:00 +25°C° 0 mm 4 m/s 756 mmHg 54%
    14:00 +25°C° 0 mm 4 m/s 756 mmHg 56%
    15:00 +25°C° 0 mm 4 m/s 755 mmHg 57%
    16:00 +25°C° 0 mm 4 m/s 755 mmHg 58%
    17:00 +23°C° 0 mm 4 m/s 755 mmHg 64%
    18:00 +22°C° 0 mm 3 m/s 754 mmHg 70%
    19:00 +21°C° 0 mm 3 m/s 754 mmHg 75%
    20:00 +20°C° 0 mm 3 m/s 754 mmHg 77%
    21:00 +19°C° 0 mm 3 m/s 754 mmHg 80%
    22:00 +17°C° 0 mm 3 m/s 754 mmHg 82%
    23:00 +17°C° 0 mm 3 m/s 754 mmHg 83%

    Depois de amanhã, 19 Junho, Quarta-feira

    Tempo Temperatura Precipitação Vento Pressão Humidade
    00:00 +17°C° 0 mm 3 m/s 754 mmHg 85%
    01:00 +17°C° 0 mm 3 m/s 753 mmHg 86%
    02:00 +17°C° 0 mm 3 m/s 753 mmHg 87%
    03:00 +16°C° 0 mm 3 m/s 753 mmHg 87%
    04:00 +16°C° 0 mm 3 m/s 753 mmHg 88%
    05:00 +18°C° 0 mm 3 m/s 753 mmHg 85%
    06:00 +20°C° 0 mm 4 m/s 752 mmHg 82%
    07:00 +21°C° 0 mm 4 m/s 752 mmHg 80%
    08:00 +22°C° 0 mm 4 m/s 752 mmHg 77%
    09:00 +25°C° 0 mm 4 m/s 752 mmHg 75%
    10:00 +26°C° 0 mm 4 m/s 751 mmHg 72%
    11:00 +26°C° 0.2 mm 4 m/s 751 mmHg 71%
    12:00 +27°C° 0.2 mm 4 m/s 751 mmHg 71%
    13:00 +27°C° 0.2 mm 3 m/s 750 mmHg 70%
    14:00 +27°C° 0.1 mm 3 m/s 750 mmHg 69%
    15:00 +27°C° 0.1 mm 2 m/s 750 mmHg 69%
    16:00 +27°C° 0.1 mm 2 m/s 749 mmHg 68%
    17:00 +27°C° 0 mm 2 m/s 749 mmHg 71%
    18:00 +26°C° 0 mm 1 m/s 749 mmHg 75%
    19:00 +25°C° 0 mm 1 m/s 749 mmHg 78%
    20:00 +24°C° 0 mm 1 m/s 749 mmHg 80%
    21:00 +23°C° 0 mm 2 m/s 749 mmHg 82%
    22:00 +21°C° 0 mm 2 m/s 749 mmHg 85%
    23:00 +20°C° 0 mm 2 m/s 749 mmHg 86%

    20 Junho, Quinta-feira

    Tempo Temperatura Precipitação Vento Pressão Humidade
    00:00 +20°C° 0 mm 2 m/s 749 mmHg 87%
    01:00 +20°C° 0 mm 2 m/s 749 mmHg 87%
    02:00 +20°C° 0 mm 2 m/s 749 mmHg 87%
    03:00 +19°C° 0 mm 2 m/s 749 mmHg 86%
    04:00 +19°C° 0 mm 2 m/s 749 mmHg 86%
    05:00 +21°C° 0 mm 2 m/s 749 mmHg 82%
    06:00 +23°C° 0 mm 2 m/s 749 mmHg 78%
    07:00 +25°C° 0 mm 2 m/s 749 mmHg 75%
    08:00 +26°C° 0.2 mm 2 m/s 749 mmHg 71%
    09:00 +27°C° 0.2 mm 2 m/s 750 mmHg 67%
    10:00 +28°C° 0.2 mm 1 m/s 750 mmHg 63%
    11:00 +29°C° 0.1 mm 1 m/s 750 mmHg 59%
    12:00 +30°C° 0.1 mm 1 m/s 750 mmHg 54%
    13:00 +30°C° 0.1 mm 1 m/s 750 mmHg 50%
    14:00 +30°C° 0 mm 1 m/s 750 mmHg 50%
    15:00 +30°C° 0 mm 1 m/s 750 mmHg 50%
    16:00 +30°C° 0 mm 1 m/s 750 mmHg 50%
    17:00 +29°C° 0.2 mm 1 m/s 750 mmHg 58%
    18:00 +27°C° 0.2 mm 2 m/s 750 mmHg 67%
    19:00 +26°C° 0.2 mm 2 m/s 750 mmHg 75%
    20:00 +25°C° 0 mm 2 m/s 750 mmHg 79%
    21:00 +23°C° 0 mm 2 m/s 750 mmHg 83%
    22:00 +21°C° 0 mm 2 m/s 750 mmHg 87%
    23:00 +21°C° 0.2 mm 2 m/s 750 mmHg 89%

    21 Junho, Sexta-feira

    Tempo Temperatura Precipitação Vento Pressão Humidade
    00:00 +20°C° 0.2 mm 2 m/s 750 mmHg 91%
    01:00 +19°C° 0.2 mm 2 m/s 750 mmHg 93%
    02:00 +19°C° 0.2 mm 2 m/s 750 mmHg 93%
    03:00 +19°C° 0.2 mm 2 m/s 750 mmHg 94%
    04:00 +19°C° 0.2 mm 1 m/s 750 mmHg 94%
    05:00 +21°C° 0.1 mm 1 m/s 750 mmHg 90%
    06:00 +23°C° 0.1 mm 1 m/s 750 mmHg 85%
    07:00 +24°C° 0.1 mm 1 m/s 750 mmHg 81%
    08:00 +26°C° 1.1 mm 1 m/s 750 mmHg 74%
    09:00 +27°C° 1.1 mm 1 m/s 750 mmHg 67%
    10:00 +29°C° 1.1 mm 1 m/s 750 mmHg 60%
    11:00 +28°C° 0.5 mm 2 m/s 750 mmHg 62%
    12:00 +28°C° 0.5 mm 3 m/s 750 mmHg 64%
    13:00 +28°C° 0.5 mm 4 m/s 750 mmHg 66%
    14:00 +28°C° 1.5 mm 4 m/s 750 mmHg 69%
    15:00 +27°C° 1.5 mm 5 m/s 750 mmHg 72%
    16:00 +26°C° 1.5 mm 5 m/s 750 mmHg 76%
    17:00 +25°C° 0.2 mm 5 m/s 751 mmHg 79%
    18:00 +23°C° 0.2 mm 4 m/s 751 mmHg 82%
    19:00 +22°C° 0.2 mm 3 m/s 751 mmHg 85%
    20:00 +21°C° 0 mm 3 m/s 752 mmHg 88%
    21:00 +20°C° 0 mm 3 m/s 752 mmHg 91%
    22:00 +19°C° 0 mm 3 m/s 753 mmHg 94%
    23:00 +18°C° 0 mm 3 m/s 753 mmHg 95%

    22 Junho, Sábado

    Tempo Temperatura Precipitação Vento Pressão Humidade
    00:00 +17°C° 0 mm 3 m/s 753 mmHg 96%
    01:00 +17°C° 0 mm 3 m/s 753 mmHg 97%
    02:00 +16°C° 0 mm 3 m/s 754 mmHg 97%
    03:00 +16°C° 0 mm 3 m/s 754 mmHg 97%
    04:00 +16°C° 0 mm 3 m/s 754 mmHg 97%
    05:00 +16°C° 0 mm 3 m/s 754 mmHg 93%
    06:00 +17°C° 0 mm 3 m/s 755 mmHg 89%
    07:00 +18°C° 0 mm 4 m/s 755 mmHg 85%
    08:00 +19°C° 0 mm 4 m/s 755 mmHg 78%
    09:00 +20°C° 0 mm 4 m/s 755 mmHg 71%
    10:00 +21°C° 0 mm 3 m/s 755 mmHg 64%
    11:00 +21°C° 0 mm 4 m/s 755 mmHg 63%
    12:00 +22°C° 0 mm 4 m/s 755 mmHg 61%
    13:00 +22°C° 0 mm 5 m/s 755 mmHg 59%
    14:00 +22°C° 0 mm 5 m/s 755 mmHg 61%
    15:00 +22°C° 0 mm 4 m/s 755 mmHg 63%
    16:00 +22°C° 0 mm 4 m/s 755 mmHg 65%
    17:00 +21°C° 0 mm 4 m/s 755 mmHg 68%
    18:00 +20°C° 0 mm 5 m/s 755 mmHg 71%
    19:00 +20°C° 0 mm 5 m/s 755 mmHg 75%
    20:00 +19°C° 0 mm 5 m/s 755 mmHg 72%
    21:00 +17°C° 0 mm 5 m/s 755 mmHg 69%
    22:00 +16°C° 0 mm 6 m/s 755 mmHg 66%
    23:00 +16°C° 0 mm 6 m/s 755 mmHg 69%
    Mostrar mais